Regional Weather Roundup
Issued by NWS

Home | Current Version | Previous Version | Text Only | Print | Product List | Glossary Off
Versions: 1 2 3 4 5 6 7 8 9 10 11 12 13 14 15 16 17 18 19 20 21 22 23 24 25 26 27 28 29 30 31 32 33 34 35 36 37 38 39 40 41 42 43 44 45 46 47 48 49 50

000
ASUS43 KLSX 212207
RWRMO

WEATHER SUMMARY FOR MISSOURI
NATIONAL WEATHER SERVICE SPRINGFIELD MO
500 PM CDT TUE OCT 21 2014

NOTE: "FAIR" INDICATES FEW OR NO CLOUDS BELOW 12,000 FEET WITH NO
       SIGNIFICANT WEATHER AND/OR OBSTRUCTIONS TO VISIBILITY.
       CURRENT SKY AND/OR WEATHER CONDITIONS ARE NOT AVAILABLE FOR
       CHILLICOTHE AND FARMINGTON.

MOZ001>031-035>038-043-044-053-054-212300-
...NORTHERN AND WESTERN MISSOURI...

CITY           SKY/WX    TMP DP  RH WIND       PRES   REMARKS
KANSAS CTY INT SUNNY     71  44  37 SE6       30.07F
KANSAS C DTWN  SUNNY     74  45  35 E3        30.06F
LEE`S SUMMIT   SUNNY     72  43  35 SE5       30.08F
ST JOSEPH      SUNNY     73  43  33 SE7       30.06F
CHILLICOTHE      N/A     71  45  39 SE5       30.10S
KIRKSVILLE     SUNNY     64  45  49 E7        30.13S

$$
MOZ066>068-077>081-088>096-101>105-212300-
...SOUTHWEST MISSOURI...

CITY           SKY/WX    TMP DP  RH WIND       PRES   REMARKS
SPRINGFIELD    SUNNY     74  43  32 CALM      30.08S
JOPLIN         SUNNY     75  46  35 NE5       30.07S

$$
MOZ032>034-039>042-045>050-055>058-069>072-212300-
...CENTRAL MISSOURI...

CITY           SKY/WX    TMP DP  RH WIND       PRES   REMARKS
COLUMBIA       SUNNY     70  45  40 NE7       30.10S
JEFFERSON CITY SUNNY     73  43  33 N7        30.08S
ROLLA          SUNNY     70  45  40 N6        30.08S
SEDALIA        SUNNY     73  41  31 CALM      30.10S
WHITEMAN AFB   SUNNY     72  42  33 CALM      30.08S
OSAGE BEACH    SUNNY     72  43  35 N3        30.09R

$$
MOZ051-052-059>065-212300-
...EAST CENTRAL MISSOURI...

CITY           SKY/WX    TMP DP  RH WIND       PRES   REMARKS
ST LOUIS INTL  SUNNY     66  43  43 NE7       30.12R
SPIRIT OF STL  SUNNY     66  43  43 NE8       30.10S
ST CHARLES     SUNNY     65  43  44 NE10      30.11S

$$
MOZ072>076-082>087-097>100-106>115-212300-
...SOUTH CENTRAL AND SOUTHEAST MISSOURI...

CITY           SKY/WX    TMP DP  RH WIND       PRES   REMARKS
CAPE GIRARDEAU SUNNY     70  46  42 N7        30.07S
FARMINGTON     SUNNY     66  46  48 N9        30.11S
POPLAR BLUFF   SUNNY     76  43  30 NE6       30.04F
WEST PLAINS    SUNNY     72  44  36 NE5       30.09S

$$



USA.gov is the U.S. government's official web portal to all federal, state and local government web resources and services.